Location: High Cliff State Park
(44.1557°N, 88.2948°W)
Time: 12:52:43
(UTC-05:00)

Amateur Radio Satellites - All Passes

Search period start: 31 October 2014 12:22
Search period end: 01 November 2014 12:22
Location: High Cliff State Park, 44.1557°N, 88.2948°W

Satellite Date Start Highest point End Downlink Frequencies (MHz)
Time Altitude Azimuth
AO-27 31 Oct 12:24:59 12:25:04 10° 54° (NE) 12:25:09 436.795 MHz FM
Oscar 16 31 Oct 12:31:10 12:35:23 26° 64° (ENE) 12:39:36 437.025 USB, Beacon 2401.1428
Saudisat 1A 31 Oct 12:32:23 12:33:42 11° 29° (NNE) 12:35:00 436.775 MHz
ISS 31 Oct 12:53:05 12:55:54 24° 350° (N) 12:58:42 145.800 FM
SO-50 31 Oct 12:53:48 12:57:39 26° 319° (NW) 13:01:36 436.795 FM
Uribyol 2 31 Oct 13:04:12 13:08:16 24° 63° (ENE) 13:12:22 436.500 FM
AO-Echo 31 Oct 13:06:28 13:10:42 28° 65° (ENE) 13:15:03 ?
ITAMSAT 1 31 Oct 13:11:56 13:16:11 26° 63° (ENE) 13:20:26 435.822 SSB
Oscar 19 31 Oct 13:22:13 13:27:19 71° 73° (ENE) 13:32:27 437.125 CW, 437.150 USB
JAS-1B 31 Oct 13:34:27 13:40:11 81° 73° (ENE) 13:45:58 435.800 - 435.900 CW/SSB
KITSAT 1 31 Oct 13:34:42 13:41:23 28° 326° (NW) 13:48:07 435.175 FM
UOSAT-12 31 Oct 13:36:31 13:41:10 73° 307° (NW) 13:45:54 437.025 FM, 437.400 FM
Sapphire 31 Oct 13:39:42 13:40:20 10° 259° (W) 13:40:57 437.095 MHz 1200 baud AX-25 AFSK
AO-27 31 Oct 13:58:24 14:03:34 65° 72° (ENE) 14:08:46 436.795 MHz FM
Oscar 16 31 Oct 14:09:38 14:14:31 43° 262° (W) 14:19:25 437.025 USB, Beacon 2401.1428
Saudisat 1A 31 Oct 14:10:00 14:14:19 49° 50° (NE) 14:18:37 436.775 MHz
Gurwin Techsat 1B 31 Oct 14:13:59 14:19:04 48° 70° (ENE) 14:24:10 435.225 FM
TMSAT-1 31 Oct 14:20:31 14:25:27 41° 68° (ENE) 14:30:25 436.925 FM
ISS 31 Oct 14:30:29 14:33:19 25° 11° (N) 14:36:09 145.800 FM
Uribyol 2 31 Oct 14:42:21 14:47:25 50° 260° (W) 14:52:31 436.500 FM
AO-Echo 31 Oct 14:44:37 14:49:17 39° 263° (W) 14:54:08 ?
ITAMSAT 1 31 Oct 14:50:26 14:55:25 45° 261° (W) 15:00:27 435.822 SSB
AO-7 31 Oct 14:59:07 15:06:33 39° 58° (ENE) 15:14:01 29.400 - 29.500 MHz
Uosat F 31 Oct 14:59:35 15:02:28 16° 59° (ENE) 15:05:22 435.120 FM
Oscar 19 31 Oct 15:04:19 15:07:11 15° 270° (W) 15:10:04 437.125 CW, 437.150 USB
UOSAT-12 31 Oct 15:19:21 15:22:09 15° 327° (NNW) 15:24:59 437.025 FM, 437.400 FM
JAS-1B 31 Oct 15:29:17 15:31:44 13° 273° (W) 15:34:12 435.800 - 435.900 CW/SSB
KITSAT 1 31 Oct 15:35:48 15:40:07 15° 356° (N) 15:44:26 435.175 FM
AO-27 31 Oct 15:40:14 15:43:33 17° 270° (W) 15:46:53 436.795 MHz FM
Saudisat 1A 31 Oct 15:50:18 15:53:33 20° 248° (WSW) 15:56:48 436.775 MHz
Gurwin Techsat 1B 31 Oct 15:55:05 15:59:16 24° 267° (W) 16:03:29 435.225 FM
JAS-2 31 Oct 15:55:41 16:00:25 21° 55° (NE) 16:05:30 435.800 - 435.900 CW/SSB, 435.910 FM
TMSAT-1 31 Oct 16:01:02 16:05:30 27° 266° (W) 16:10:00 436.925 FM
ISS 31 Oct 16:07:03 16:10:24 75° 30° (NNE) 16:13:44 145.800 FM
Uosat F 31 Oct 16:35:36 16:40:38 77° 256° (WSW) 16:45:42 435.120 FM
AO-7 31 Oct 16:51:04 16:59:06 54° 258° (WSW) 17:07:12 29.400 - 29.500 MHz
OPAL 31 Oct 17:05:25 17:07:50 14° 92° (E) 17:10:15 ?
KITSAT 1 31 Oct 17:33:16 17:39:13 22° 26° (NNE) 17:45:09 435.175 FM
JAS-2 31 Oct 17:38:07 17:44:27 84° 256° (WSW) 17:51:42 435.800 - 435.900 CW/SSB, 435.910 FM
Hamsat 31 Oct 17:41:56 17:46:05 71° 75° (ENE) 17:50:15 145.90 MHz
ISS 31 Oct 17:44:35 17:46:44 16° 227° (SW) 17:48:53 145.800 FM
SO-50 31 Oct 18:03:02 18:05:50 15° 32° (NNE) 18:08:40 436.795 FM
SO-67 31 Oct 18:25:51 18:28:39 24° 69° (ENE) 18:31:28 435.3500 MHz FM
OPAL 31 Oct 18:42:19 18:47:16 75° 289° (WNW) 18:52:12 ?
STRAND 1 31 Oct 19:00:32 19:04:53 27° 95° (E) 19:09:11 ?
HO-68 31 Oct 19:07:52 19:12:42 20° 52° (NE) 19:17:32 435.675 MHz FM
Hamsat 31 Oct 19:21:46 19:22:31 10° 272° (W) 19:23:16 145.90 MHz
JAS-2 31 Oct 19:27:24 19:30:47 14° 278° (W) 19:34:21 435.800 - 435.900 CW/SSB, 435.910 FM
KITSAT 1 31 Oct 19:28:25 19:36:26 61° 52° (NE) 19:44:24 435.175 FM
SO-50 31 Oct 19:42:27 19:47:17 68° 53° (NE) 19:52:09 436.795 FM
Oscar 10/S400 31 Oct 19:52:31 20:24:02 50° 195° (SSW) 04:18:52 145.825 - 145.975 CW/USB, Beacon 145.810 USB
SO-67 31 Oct 19:58:57 20:01:35 20° 266° (W) 20:04:14 435.3500 MHz FM
OPAL 31 Oct 20:23:57 20:25:18 11° 307° (NW) 20:26:38 ?
UOSAT-12 31 Oct 20:25:12 20:29:06 25° 41° (NE) 20:32:57 437.025 FM, 437.400 FM
Oscar 11 31 Oct 20:26:29 20:28:39 14° 61° (ENE) 20:30:50 145.825 FM, Beacon 2401.500 USB
STRAND 1 31 Oct 20:39:22 20:44:11 40° 292° (WNW) 20:48:56 ?
AO-40 31 Oct 20:40:59 21:19:48 11° 107° (ESE) 21:50:30 Beacon 2401.320
RS-15 31 Oct 20:49:57 21:00:25 53° 113° (ESE) 21:10:49 29.354 - 29.394 USB, Beacon 29.352 USB
HO-68 31 Oct 20:52:15 20:59:26 87° 72° (ENE) 21:06:40 435.675 MHz FM
SO-50 31 Oct 21:24:13 21:27:21 17° 250° (WSW) 21:30:29 436.795 FM
KITSAT 1 31 Oct 21:24:24 21:31:25 34° 252° (WSW) 21:38:25 435.175 FM
UKube-1 31 Oct 21:25:18 21:29:34 59° 72° (ENE) 21:33:53 145.840 MHz, 145.915 MHz
ZACube-1 31 Oct 21:35:21 21:39:18 31° 69° (ENE) 21:43:13 437.345 MHz
Oscar 11 31 Oct 22:00:02 22:04:19 65° 259° (WSW) 22:08:37 145.825 FM, Beacon 2401.500 USB
UOSAT-12 31 Oct 22:04:57 22:09:35 55° 240° (WSW) 22:14:06 437.025 FM, 437.400 FM
FUNcube-1 31 Oct 22:17:28 22:21:59 83° 76° (ENE) 22:26:26 145.950 - 145.970 MHz USB
MaSat-1 31 Oct 22:23:31 22:27:23 88° 117° (ESE) 22:30:51 437.345 MHz
HO-68 31 Oct 22:43:21 22:48:00 18° 271° (W) 22:52:41 435.675 MHz FM
RS-15 31 Oct 23:02:13 23:12:49 53° 317° (NW) 23:23:31 29.354 - 29.394 USB, Beacon 29.352 USB
UKube-1 31 Oct 23:03:51 23:06:08 14° 269° (W) 23:08:26 145.840 MHz, 145.915 MHz
ZACube-1 31 Oct 23:11:48 23:15:41 28° 265° (W) 23:19:30 437.345 MHz
FUNcube-1 31 Oct 23:58:29 23:58:54 10° 272° (W) 23:59:18 145.950 - 145.970 MHz USB
Sapphire 01 Nov 00:57:38 00:58:21 10° 101° (E) 00:59:04 437.095 MHz 1200 baud AX-25 AFSK
JAS-1B 01 Nov 01:15:18 01:20:58 23° 93° (E) 01:27:19 435.800 - 435.900 CW/SSB
PCSat 01 Nov 01:16:04 01:19:37 18° 105° (ESE) 01:23:11 145.825 MHz
RS-15 01 Nov 01:19:41 01:28:28 26° 349° (N) 01:37:25 29.354 - 29.394 USB, Beacon 29.352 USB
Oscar 19 01 Nov 01:33:01 01:36:57 22° 93° (E) 01:40:53 437.125 CW, 437.150 USB
AO-27 01 Nov 02:10:48 02:14:41 21° 92° (E) 02:18:31 436.795 MHz FM
Oscar 16 01 Nov 02:19:25 02:24:29 60° 101° (E) 02:29:32 437.025 USB, Beacon 2401.1428
Gurwin Techsat 1B 01 Nov 02:29:44 02:33:08 17° 90° (E) 02:36:30 435.225 FM
Sapphire 01 Nov 02:35:24 02:40:48 76° 118° (ESE) 02:46:14 437.095 MHz 1200 baud AX-25 AFSK
TMSAT-1 01 Nov 02:36:13 02:39:00 14° 89° (E) 02:41:46 436.925 FM
AO-Echo 01 Nov 02:49:45 02:55:03 62° 101° (E) 03:00:16 ?
Uribyol 2 01 Nov 02:53:25 02:58:31 52° 100° (E) 03:03:33 436.500 FM
PCSat 01 Nov 02:57:03 03:02:26 70° 303° (WNW) 03:07:53 145.825 MHz
ITAMSAT 1 01 Nov 03:01:30 03:06:40 58° 101° (E) 03:11:46 435.822 SSB
JAS-1B 01 Nov 03:04:54 03:11:56 76° 288° (WNW) 03:20:24 435.800 - 435.900 CW/SSB
Oscar 19 01 Nov 03:11:38 03:16:33 48° 290° (WNW) 03:21:27 437.125 CW, 437.150 USB
RS-15 01 Nov 03:35:49 03:45:24 32° 25° (NNE) 03:55:15 29.354 - 29.394 USB, Beacon 29.352 USB
AO-27 01 Nov 03:49:25 03:54:30 53° 290° (WNW) 03:59:33 436.795 MHz FM
Oscar 16 01 Nov 03:59:48 04:03:24 20° 299° (WNW) 04:06:59 437.025 USB, Beacon 2401.1428
Gurwin Techsat 1B 01 Nov 04:08:18 04:13:35 66° 287° (WNW) 04:18:50 435.225 FM
TMSAT-1 01 Nov 04:14:12 04:19:31 78° 286° (WNW) 04:24:48 436.925 FM
Sapphire 01 Nov 04:20:41 04:24:49 22° 319° (NW) 04:28:59 437.095 MHz 1200 baud AX-25 AFSK
OPAL 01 Nov 04:20:46 04:25:14 32° 64° (ENE) 04:29:39 ?
AO-Echo 01 Nov 04:29:31 04:33:19 20° 299° (WNW) 04:37:05 ?
Uribyol 2 01 Nov 04:33:39 04:37:38 23° 298° (WNW) 04:41:35 436.500 FM
ITAMSAT 1 01 Nov 04:41:55 04:45:43 21° 299° (WNW) 04:49:30 435.822 SSB
Uosat F 01 Nov 04:42:11 04:46:35 29° 96° (E) 04:50:56 435.120 FM
PCSat 01 Nov 04:43:39 04:46:53 16° 325° (NW) 04:50:07 145.825 MHz
JAS-2 01 Nov 04:47:16 04:52:11 18° 85° (E) 04:56:59 435.800 - 435.900 CW/SSB, 435.910 FM
AO-7 01 Nov 04:50:30 04:58:33 50° 101° (E) 05:06:33 29.400 - 29.500 MHz
JAS-1B 01 Nov 04:57:36 05:01:43 17° 305° (NW) 05:06:13 435.800 - 435.900 CW/SSB
Hamsat 01 Nov 05:28:12 05:29:31 11° 89° (E) 05:30:50 145.90 MHz
RS-15 01 Nov 05:48:40 05:59:52 77° 53° (NE) 06:11:32 29.354 - 29.394 USB, Beacon 29.352 USB
Gurwin Techsat 1B 01 Nov 05:51:45 05:52:32 10° 306° (NW) 05:53:19 435.225 FM
TMSAT-1 01 Nov 05:56:35 05:58:33 12° 304° (NW) 06:00:31 436.925 FM
Saudisat 1A 01 Nov 05:56:43 06:01:04 72° 122° (ESE) 06:05:28 436.775 MHz
OPAL 01 Nov 05:59:24 06:04:02 35° 261° (W) 06:08:39 ?
STRAND 1 01 Nov 06:17:44 06:22:37 45° 69° (ENE) 06:27:32 ?
Uosat F 01 Nov 06:20:48 06:25:24 36° 293° (WNW) 06:29:58 435.120 FM
JAS-2 01 Nov 06:30:20 06:38:16 83° 104° (ESE) 06:45:55 435.800 - 435.900 CW/SSB, 435.910 FM
MaSat-1 01 Nov 06:32:29 06:33:32 12° 50° (NE) 06:34:33 437.345 MHz
AO-7 01 Nov 06:43:34 06:51:12 42° 301° (WNW) 06:58:51 29.400 - 29.500 MHz
Hamsat 01 Nov 07:01:42 07:05:54 68° 285° (WNW) 07:10:07 145.90 MHz
SO-67 01 Nov 07:20:05 07:22:51 22° 95° (E) 07:25:37 435.3500 MHz FM
Saudisat 1A 01 Nov 07:37:57 07:41:07 19° 322° (NW) 07:44:17 436.775 MHz
STRAND 1 01 Nov 07:57:54 08:02:00 24° 266° (W) 08:06:08 ?
RS-15 01 Nov 08:01:55 08:11:16 32° 255° (WSW) 08:20:59 29.354 - 29.394 USB, Beacon 29.352 USB
MaSat-1 01 Nov 08:07:00 08:08:55 20° 251° (WSW) 08:10:46 437.345 MHz
JAS-2 01 Nov 08:16:23 08:22:24 25° 303° (WNW) 08:28:21 435.800 - 435.900 CW/SSB, 435.910 FM
HO-68 01 Nov 08:20:41 08:24:17 14° 87° (E) 08:27:52 435.675 MHz FM
AO-7 01 Nov 08:39:51 08:41:46 11° 323° (NW) 08:43:42 29.400 - 29.500 MHz
SO-67 01 Nov 08:53:01 08:55:44 22° 291° (WNW) 08:58:27 435.3500 MHz FM
Sapphire 01 Nov 09:39:30 09:43:08 18° 38° (NE) 09:46:46 437.095 MHz 1200 baud AX-25 AFSK
Oscar 11 01 Nov 09:46:49 09:50:01 20° 93° (E) 09:53:12 145.825 FM, Beacon 2401.500 USB
KITSAT 1 01 Nov 09:59:12 10:06:06 32° 107° (ESE) 10:13:00 435.175 FM
PCSat 01 Nov 10:00:41 10:05:07 25° 43° (NE) 10:09:32 145.825 MHz
SO-50 01 Nov 10:01:05 10:03:28 14° 108° (ESE) 10:05:53 436.795 FM
HO-68 01 Nov 10:05:50 10:13:05 79° 106° (ESE) 10:20:16 435.675 MHz FM
FUNcube-1 01 Nov 10:06:48 10:08:51 13° 90° (E) 10:10:52 145.950 - 145.970 MHz USB
ISS 01 Nov 10:26:19 10:29:37 72° 146° (SE) 10:32:56 145.800 FM
UKube-1 01 Nov 10:47:53 10:52:17 89° 104° (ESE) 10:56:38 145.840 MHz, 145.915 MHz
ZACube-1 01 Nov 10:58:50 11:02:56 49° 99° (E) 11:06:57 437.345 MHz
Sapphire 01 Nov 11:21:57 11:27:25 83° 59° (ENE) 11:32:51 437.095 MHz 1200 baud AX-25 AFSK
Oscar 11 01 Nov 11:22:19 11:26:21 39° 290° (WNW) 11:30:21 145.825 FM, Beacon 2401.500 USB
SO-50 01 Nov 11:38:53 11:43:23 72° 307° (NW) 11:48:03 436.795 FM
FUNcube-1 01 Nov 11:41:30 11:45:36 55° 287° (WNW) 11:49:39 145.950 - 145.970 MHz USB
PCSat 01 Nov 11:43:36 11:48:59 63° 243° (WSW) 11:54:19 145.825 MHz
KITSAT 1 01 Nov 11:53:00 12:01:00 64° 308° (NW) 12:09:03 435.175 FM
HO-68 01 Nov 11:54:39 12:00:02 24° 305° (NW) 12:05:26 435.675 MHz FM
Oscar 16 01 Nov 12:01:35 12:04:22 15° 58° (ENE) 12:07:09 437.025 USB, Beacon 2401.1428
ISS 01 Nov 12:03:35 12:06:33 29° 345° (NNW) 12:09:31 145.800 FM
JAS-1B 01 Nov 12:05:38 12:09:10 17° 56° (NE) 12:12:47 435.800 - 435.900 CW/SSB
